Location: Nairn
(57.5833°N, 3.8667°W)
Time: 17:06:00
(UTC+00:00)

Cosmos 836 Rocket - Pass Details

Date: 07 August 2020
Orbit: 758 x 777 km, 74.1° (Epoch: 23 September)

Event Time Altitude Azimuth Distance (km) Brightness Sun altitude
Rises 00:00:53 0° 329° (NNW) 3,236 8.9 -16.0°
Reaches altitude 10° 00:03:16 10° 328° (NNW) 2,305 8.0 -16.0°
Maximum altitude 00:08:29 76° 244° (WSW) 789 4.5 -16.0°
Enters shadow 00:11:29 26° 163° (SSE) 1,476 5.4 -16.0°
